Year,Month,Day,Hour,Minute,Value (Times are PST for temperature in C)
2018,06,20,00,00,17.90
2018,06,20,00,01,17.80
2018,06,20,00,02,17.80
2018,06,20,00,03,17.80
2018,06,20,00,04,17.80
2018,06,20,00,05,17.70
2018,06,20,00,06,17.70
2018,06,20,00,07,17.70
2018,06,20,00,08,17.60
2018,06,20,00,09,17.60
2018,06,20,00,10,17.60
2018,06,20,00,11,17.60
2018,06,20,00,12,17.50
2018,06,20,00,13,17.50
2018,06,20,00,14,17.40
2018,06,20,00,15,17.40
2018,06,20,00,16,17.40
2018,06,20,00,17,17.40
2018,06,20,00,18,17.30
2018,06,20,00,19,17.30
2018,06,20,00,20,17.30
2018,06,20,00,21,17.30
2018,06,20,00,22,17.20
2018,06,20,00,23,17.20
2018,06,20,00,24,17.20
2018,06,20,00,25,17.20
2018,06,20,00,26,17.10
2018,06,20,00,27,17.10
2018,06,20,00,28,17.10
2018,06,20,00,29,17.10
2018,06,20,00,30,17.00
2018,06,20,00,31,17.00
2018,06,20,00,32,16.90
2018,06,20,00,33,16.90
2018,06,20,00,34,16.90
2018,06,20,00,35,16.90
2018,06,20,00,36,16.90
2018,06,20,00,37,16.90
2018,06,20,00,38,16.90
2018,06,20,00,39,16.80
2018,06,20,00,40,16.80
2018,06,20,00,41,16.80
2018,06,20,00,42,16.80
2018,06,20,00,43,16.80
2018,06,20,00,44,16.80
2018,06,20,00,45,16.80
2018,06,20,00,46,16.70
2018,06,20,00,47,16.70
2018,06,20,00,48,16.70
2018,06,20,00,49,16.70
2018,06,20,00,50,16.70
2018,06,20,00,51,16.70
2018,06,20,00,52,16.70
2018,06,20,00,53,16.70
2018,06,20,00,54,16.60
2018,06,20,00,55,16.60
2018,06,20,00,56,16.60
2018,06,20,00,57,16.60
2018,06,20,00,58,16.60
2018,06,20,00,59,16.60
2018,06,20,01,00,16.60
2018,06,20,01,01,16.60
2018,06,20,01,02,16.60
2018,06,20,01,03,16.60
2018,06,20,01,04,16.60
2018,06,20,01,05,16.60
2018,06,20,01,06,16.60
2018,06,20,01,07,16.60
2018,06,20,01,08,16.60
2018,06,20,01,09,16.50
2018,06,20,01,10,16.50
2018,06,20,01,11,16.50
2018,06,20,01,12,16.50
2018,06,20,01,13,16.40
2018,06,20,01,14,16.40
2018,06,20,01,15,16.40
2018,06,20,01,16,16.40
2018,06,20,01,17,16.40
2018,06,20,01,18,16.40
2018,06,20,01,19,16.30
2018,06,20,01,20,16.30
2018,06,20,01,21,16.30
2018,06,20,01,22,16.30
2018,06,20,01,23,16.30
2018,06,20,01,24,16.30
2018,06,20,01,25,16.30
2018,06,20,01,26,16.20
2018,06,20,01,27,16.20
2018,06,20,01,28,16.20
2018,06,20,01,29,16.20
2018,06,20,01,30,16.20
2018,06,20,01,31,16.20
2018,06,20,01,32,16.20
2018,06,20,01,33,16.20
2018,06,20,01,34,16.20
2018,06,20,01,35,16.10
2018,06,20,01,36,16.10
2018,06,20,01,37,16.10
2018,06,20,01,38,16.10
2018,06,20,01,39,16.10
2018,06,20,01,40,16.10
2018,06,20,01,41,16.10
2018,06,20,01,42,16.10
2018,06,20,01,43,16.10
2018,06,20,01,44,16.10
2018,06,20,01,45,16.10
2018,06,20,01,46,16.10
2018,06,20,01,47,16.10
2018,06,20,01,48,16.10
2018,06,20,01,49,16.10
2018,06,20,01,50,16.10
2018,06,20,01,51,16.00
2018,06,20,01,52,16.00
2018,06,20,01,53,16.00
2018,06,20,01,54,16.00
2018,06,20,01,55,15.90
2018,06,20,01,56,15.90
2018,06,20,01,57,15.90
2018,06,20,01,58,15.90
2018,06,20,01,59,15.90
2018,06,20,02,00,15.90
2018,06,20,02,01,15.90
2018,06,20,02,02,15.90
2018,06,20,02,03,15.80
2018,06,20,02,04,15.80
2018,06,20,02,05,15.80
2018,06,20,02,06,15.80
2018,06,20,02,07,15.80
2018,06,20,02,08,15.80
2018,06,20,02,09,15.80
2018,06,20,02,10,15.80
2018,06,20,02,11,15.80
2018,06,20,02,12,15.80
2018,06,20,02,13,15.80
2018,06,20,02,14,15.80
2018,06,20,02,15,15.80
2018,06,20,02,16,15.80
2018,06,20,02,17,15.80
2018,06,20,02,18,15.70
2018,06,20,02,19,15.70
2018,06,20,02,20,15.70
2018,06,20,02,21,15.70
2018,06,20,02,22,15.70
2018,06,20,02,23,15.70
2018,06,20,02,24,15.70
2018,06,20,02,25,15.70
2018,06,20,02,26,15.70
2018,06,20,02,27,15.60
2018,06,20,02,28,15.60
2018,06,20,02,29,15.60
2018,06,20,02,30,15.50
2018,06,20,02,31,15.50
2018,06,20,02,32,15.50
2018,06,20,02,33,15.40
2018,06,20,02,34,15.40
2018,06,20,02,35,15.40
2018,06,20,02,36,15.40
2018,06,20,02,37,15.40
2018,06,20,02,38,15.40
2018,06,20,02,39,15.40
2018,06,20,02,40,15.40
2018,06,20,02,41,15.40
2018,06,20,02,42,15.30
2018,06,20,02,43,15.30
2018,06,20,02,44,15.30
2018,06,20,02,45,15.30
2018,06,20,02,46,15.30
2018,06,20,02,47,15.30
2018,06,20,02,48,15.30
2018,06,20,02,49,15.30
2018,06,20,02,50,15.30
2018,06,20,02,51,15.30
2018,06,20,02,52,15.30
2018,06,20,02,53,15.30
2018,06,20,02,54,15.30
2018,06,20,02,55,15.30
2018,06,20,02,56,15.30
2018,06,20,02,57,15.30
2018,06,20,02,58,15.30
2018,06,20,02,59,15.30
2018,06,20,03,00,15.30
2018,06,20,03,01,15.30
2018,06,20,03,02,15.30
2018,06,20,03,03,15.20
2018,06,20,03,04,15.20
2018,06,20,03,05,15.20
2018,06,20,03,06,15.30
2018,06,20,03,07,15.30
2018,06,20,03,08,15.30
2018,06,20,03,09,15.30
2018,06,20,03,10,15.30
2018,06,20,03,11,15.20
2018,06,20,03,12,15.20
2018,06,20,03,13,15.20
2018,06,20,03,14,15.20
2018,06,20,03,15,15.20
2018,06,20,03,16,15.20
2018,06,20,03,17,15.20
2018,06,20,03,18,15.20
2018,06,20,03,19,15.20
2018,06,20,03,20,15.20
2018,06,20,03,21,15.20
2018,06,20,03,22,15.10
2018,06,20,03,23,15.10
2018,06,20,03,24,15.10
2018,06,20,03,25,15.10
2018,06,20,03,26,15.10
2018,06,20,03,27,15.10
2018,06,20,03,28,15.10
2018,06,20,03,29,15.10
2018,06,20,03,30,15.10
2018,06,20,03,31,15.10
2018,06,20,03,32,15.00
2018,06,20,03,33,15.00
2018,06,20,03,34,15.00
2018,06,20,03,35,15.00
2018,06,20,03,36,15.00
2018,06,20,03,37,15.00
2018,06,20,03,38,15.00
2018,06,20,03,39,15.00
2018,06,20,03,40,15.00
2018,06,20,03,41,15.00
2018,06,20,03,42,15.00
2018,06,20,03,43,15.00
2018,06,20,03,44,14.90
2018,06,20,03,45,14.90
2018,06,20,03,46,14.90
2018,06,20,03,47,14.90
2018,06,20,03,48,14.90
2018,06,20,03,49,14.90
2018,06,20,03,50,14.90
2018,06,20,03,51,14.90
2018,06,20,03,52,14.90
2018,06,20,03,53,14.90
2018,06,20,03,54,14.90
2018,06,20,03,55,14.90
2018,06,20,03,56,14.90
2018,06,20,03,57,14.90
2018,06,20,03,58,14.90
2018,06,20,03,59,14.90
2018,06,20,04,00,14.90
2018,06,20,04,01,14.90
2018,06,20,04,02,14.90
2018,06,20,04,03,14.90
2018,06,20,04,04,15.00
2018,06,20,04,05,15.00
2018,06,20,04,06,15.00
2018,06,20,04,07,15.00
2018,06,20,04,08,15.00
2018,06,20,04,09,15.00
2018,06,20,04,10,15.00
2018,06,20,04,11,15.00
2018,06,20,04,12,15.00
2018,06,20,04,13,15.00
2018,06,20,04,14,15.00
2018,06,20,04,15,15.00
2018,06,20,04,16,15.00
2018,06,20,04,17,15.10
2018,06,20,04,18,15.10
2018,06,20,04,19,15.10
2018,06,20,04,20,15.10
2018,06,20,04,21,15.10
2018,06,20,04,22,15.20
2018,06,20,04,23,15.20
2018,06,20,04,24,15.20
2018,06,20,04,25,15.30
2018,06,20,04,26,15.30
2018,06,20,04,27,15.30
2018,06,20,04,28,15.30
2018,06,20,04,29,15.30
2018,06,20,04,30,15.30
2018,06,20,04,31,15.30
2018,06,20,04,32,15.30
2018,06,20,04,33,15.30
2018,06,20,04,34,15.40
2018,06,20,04,35,15.40
2018,06,20,04,36,15.40
2018,06,20,04,37,15.40
2018,06,20,04,38,15.40
2018,06,20,04,39,15.40
2018,06,20,04,40,15.50
2018,06,20,04,41,15.50
2018,06,20,04,42,15.50
2018,06,20,04,43,15.50
2018,06,20,04,44,15.50
2018,06,20,04,45,15.50
2018,06,20,04,46,15.50
2018,06,20,04,47,15.50
2018,06,20,04,48,15.50
2018,06,20,04,49,15.50
2018,06,20,04,50,15.50
2018,06,20,04,51,15.60
2018,06,20,04,52,15.60
2018,06,20,04,53,15.60
2018,06,20,04,54,15.60
2018,06,20,04,55,15.60
2018,06,20,04,56,15.60
2018,06,20,04,57,15.60
2018,06,20,04,58,15.60
2018,06,20,04,59,15.70
2018,06,20,05,00,15.70
2018,06,20,05,01,15.70
2018,06,20,05,02,15.70
2018,06,20,05,03,15.70
2018,06,20,05,04,15.70
2018,06,20,05,05,15.80
2018,06,20,05,06,15.80
2018,06,20,05,07,15.80
2018,06,20,05,08,15.80
2018,06,20,05,09,15.90
2018,06,20,05,10,15.90
2018,06,20,05,11,15.90
2018,06,20,05,12,15.90
2018,06,20,05,13,16.00
2018,06,20,05,14,16.00
2018,06,20,05,15,16.00
2018,06,20,05,16,16.00
2018,06,20,05,17,16.10
2018,06,20,05,18,16.10
2018,06,20,05,19,16.10
2018,06,20,05,20,16.20
2018,06,20,05,21,16.20
2018,06,20,05,22,16.20
2018,06,20,05,23,16.20
2018,06,20,05,24,16.20
2018,06,20,05,25,16.30
2018,06,20,05,26,16.30
2018,06,20,05,27,16.30
2018,06,20,05,28,16.30
2018,06,20,05,29,16.30
2018,06,20,05,30,16.30
2018,06,20,05,31,16.30
2018,06,20,05,32,16.30
2018,06,20,05,33,16.30
2018,06,20,05,34,16.30
2018,06,20,05,35,16.30
2018,06,20,05,36,16.30
2018,06,20,05,37,16.30
2018,06,20,05,38,16.30
2018,06,20,05,39,16.20
2018,06,20,05,40,16.20
2018,06,20,05,41,16.20
2018,06,20,05,42,16.20
2018,06,20,05,43,16.20
2018,06,20,05,44,16.20
2018,06,20,05,45,16.20
2018,06,20,05,46,16.20
2018,06,20,05,47,16.20
2018,06,20,05,48,16.20
2018,06,20,05,49,16.20
2018,06,20,05,50,16.30
2018,06,20,05,51,16.30
2018,06,20,05,52,16.30
2018,06,20,05,53,16.30
2018,06,20,05,54,16.30
2018,06,20,05,55,16.30
2018,06,20,05,56,16.30
2018,06,20,05,57,16.30
2018,06,20,05,58,16.30
2018,06,20,05,59,16.30
2018,06,20,06,00,16.30
2018,06,20,06,01,16.30
2018,06,20,06,02,16.30
2018,06,20,06,03,16.30
2018,06,20,06,04,16.30
2018,06,20,06,05,16.30
2018,06,20,06,06,16.30
2018,06,20,06,07,16.30
2018,06,20,06,08,16.30
2018,06,20,06,09,16.30
2018,06,20,06,10,16.30
2018,06,20,06,11,16.30
2018,06,20,06,12,16.30
2018,06,20,06,13,16.30
2018,06,20,06,14,16.30
2018,06,20,06,15,16.30
2018,06,20,06,16,16.30
2018,06,20,06,17,16.30
2018,06,20,06,18,16.30
2018,06,20,06,19,16.30
2018,06,20,06,20,16.30
2018,06,20,06,21,16.30
2018,06,20,06,22,16.30
2018,06,20,06,23,16.30
2018,06,20,06,24,16.30
2018,06,20,06,25,16.30
2018,06,20,06,26,16.40
2018,06,20,06,27,16.40
2018,06,20,06,28,16.40
2018,06,20,06,29,16.40
2018,06,20,06,30,16.40
2018,06,20,06,31,16.40
2018,06,20,06,32,16.40
2018,06,20,06,33,16.40
2018,06,20,06,34,16.40
2018,06,20,06,35,16.50
2018,06,20,06,36,16.50
2018,06,20,06,37,16.50
2018,06,20,06,38,16.50
2018,06,20,06,39,16.60
2018,06,20,06,40,16.60
2018,06,20,06,41,16.60
2018,06,20,06,42,16.70
2018,06,20,06,43,16.70
2018,06,20,06,44,16.80
2018,06,20,06,45,16.80
2018,06,20,06,46,16.80
2018,06,20,06,47,16.80
2018,06,20,06,48,16.80
2018,06,20,06,49,16.90
2018,06,20,06,50,16.90
2018,06,20,06,51,16.90
2018,06,20,06,52,16.90
2018,06,20,06,53,16.90
2018,06,20,06,54,16.90
2018,06,20,06,55,16.90
2018,06,20,06,56,16.90
2018,06,20,06,57,16.90
2018,06,20,06,58,16.90
2018,06,20,06,59,16.90
2018,06,20,07,00,16.90
2018,06,20,07,01,16.90
2018,06,20,07,02,16.90
2018,06,20,07,03,16.90
2018,06,20,07,04,16.90
2018,06,20,07,05,16.90
2018,06,20,07,06,16.90
2018,06,20,07,07,17.00
2018,06,20,07,08,17.10
2018,06,20,07,09,17.10
2018,06,20,07,10,17.20
2018,06,20,07,11,17.20
2018,06,20,07,12,17.20
2018,06,20,07,13,17.30
2018,06,20,07,14,17.20
2018,06,20,07,15,17.20
2018,06,20,07,16,17.20
2018,06,20,07,17,17.20
2018,06,20,07,18,17.30
2018,06,20,07,19,17.30
2018,06,20,07,20,17.30
2018,06,20,07,21,17.30
2018,06,20,07,22,17.30
2018,06,20,07,23,17.30
2018,06,20,07,24,17.40
2018,06,20,07,25,17.40
2018,06,20,07,26,17.40
2018,06,20,07,27,17.50
2018,06,20,07,28,17.50
2018,06,20,07,29,17.60
2018,06,20,07,30,17.60
2018,06,20,07,31,17.70
2018,06,20,07,32,17.70
2018,06,20,07,33,17.80
2018,06,20,07,34,17.80
2018,06,20,07,35,17.90
2018,06,20,07,36,18.00
2018,06,20,07,37,18.00
2018,06,20,07,38,18.10
2018,06,20,07,39,18.20
2018,06,20,07,40,18.20
2018,06,20,07,41,18.30
2018,06,20,07,42,18.30
2018,06,20,07,43,18.40
2018,06,20,07,44,18.40
2018,06,20,07,45,18.40
2018,06,20,07,46,18.40
2018,06,20,07,47,18.50
2018,06,20,07,48,18.50
2018,06,20,07,49,18.50
2018,06,20,07,50,18.50
2018,06,20,07,51,18.50
2018,06,20,07,52,18.50
2018,06,20,07,53,18.60
2018,06,20,07,54,18.60
2018,06,20,07,55,18.70
2018,06,20,07,56,18.70
2018,06,20,07,57,18.80
2018,06,20,07,58,18.80
2018,06,20,07,59,18.90
2018,06,20,08,00,18.90
2018,06,20,08,01,19.00
2018,06,20,08,02,19.10
2018,06,20,08,03,19.10
2018,06,20,08,04,19.20
2018,06,20,08,05,19.20
2018,06,20,08,06,19.30
2018,06,20,08,07,19.40
2018,06,20,08,08,19.40
2018,06,20,08,09,19.50
2018,06,20,08,10,19.50
2018,06,20,08,11,19.60
2018,06,20,08,12,19.60
2018,06,20,08,13,19.70
2018,06,20,08,14,19.80
2018,06,20,08,15,19.90
2018,06,20,08,16,19.90
2018,06,20,08,17,20.00
2018,06,20,08,18,20.00
2018,06,20,08,19,20.10
2018,06,20,08,20,20.10
2018,06,20,08,21,20.10
2018,06,20,08,22,20.10
2018,06,20,08,23,20.10
2018,06,20,08,24,20.10
2018,06,20,08,25,20.20
2018,06,20,08,26,20.20
2018,06,20,08,27,20.20
2018,06,20,08,28,20.30
2018,06,20,08,29,20.30
2018,06,20,08,30,20.30
2018,06,20,08,31,20.40
2018,06,20,08,32,20.40
2018,06,20,08,33,20.40
2018,06,20,08,34,20.50
2018,06,20,08,35,20.60
2018,06,20,08,36,20.70
2018,06,20,08,37,20.70
2018,06,20,08,38,20.70
2018,06,20,08,39,20.70
2018,06,20,08,40,20.70
2018,06,20,08,41,20.70
2018,06,20,08,42,20.70
2018,06,20,08,43,20.70
2018,06,20,08,44,20.70
2018,06,20,08,45,20.70
2018,06,20,08,46,20.70
2018,06,20,08,47,20.70
2018,06,20,08,48,20.80
2018,06,20,08,49,20.90
2018,06,20,08,50,20.90
2018,06,20,08,51,20.90
2018,06,20,08,52,20.90
2018,06,20,08,53,21.00
2018,06,20,08,54,21.00
2018,06,20,08,55,21.10
2018,06,20,08,56,21.20
2018,06,20,08,57,21.20
2018,06,20,08,58,21.30
2018,06,20,08,59,21.40
2018,06,20,09,00,21.40
2018,06,20,09,01,21.40
2018,06,20,09,02,21.40
2018,06,20,09,03,21.40
2018,06,20,09,04,21.40
2018,06,20,09,05,21.40
2018,06,20,09,06,21.30
2018,06,20,09,07,21.30
2018,06,20,09,08,21.30
2018,06,20,09,09,21.30
2018,06,20,09,10,21.30
2018,06,20,09,11,21.20
2018,06,20,09,12,21.20
2018,06,20,09,13,21.20
2018,06,20,09,14,21.20
2018,06,20,09,15,21.20
2018,06,20,09,16,21.20
2018,06,20,09,17,21.20
2018,06,20,09,18,21.20
2018,06,20,09,19,21.20
2018,06,20,09,20,21.20
2018,06,20,09,21,21.10
2018,06,20,09,22,21.10
2018,06,20,09,23,21.10
2018,06,20,09,24,21.00
2018,06,20,09,25,20.90
2018,06,20,09,26,20.90
2018,06,20,09,27,20.80
2018,06,20,09,28,20.80
2018,06,20,09,29,20.80
2018,06,20,09,30,20.70
2018,06,20,09,31,20.70
2018,06,20,09,32,20.70
2018,06,20,09,33,20.70
2018,06,20,09,34,20.70
2018,06,20,09,35,20.70
2018,06,20,09,36,20.70
2018,06,20,09,37,20.70
2018,06,20,09,38,20.70
2018,06,20,09,39,20.60
2018,06,20,09,40,20.60
2018,06,20,09,41,20.50
2018,06,20,09,42,20.40
2018,06,20,09,43,20.30
2018,06,20,09,44,20.30
2018,06,20,09,45,20.30
2018,06,20,09,46,20.30
2018,06,20,09,47,20.30
2018,06,20,09,48,20.20
2018,06,20,09,49,20.30
2018,06,20,09,50,20.30
2018,06,20,09,51,20.40
2018,06,20,09,52,20.40
2018,06,20,09,53,20.50
2018,06,20,09,54,20.60
2018,06,20,09,55,20.70
2018,06,20,09,56,20.70
2018,06,20,09,57,20.80
2018,06,20,09,58,20.80
2018,06,20,09,59,20.80
2018,06,20,10,00,20.80
2018,06,20,10,01,20.80
2018,06,20,10,02,20.80
2018,06,20,10,03,20.90
2018,06,20,10,04,20.90
2018,06,20,10,05,20.90
2018,06,20,10,06,21.00
2018,06,20,10,07,21.00
2018,06,20,10,08,21.10
2018,06,20,10,09,21.10
2018,06,20,10,10,21.20
2018,06,20,10,11,21.20
2018,06,20,10,12,21.20
2018,06,20,10,13,21.20
2018,06,20,10,14,21.20
2018,06,20,10,15,21.30
2018,06,20,10,16,21.30
2018,06,20,10,17,21.40
2018,06,20,10,18,21.40
2018,06,20,10,19,21.40
2018,06,20,10,20,21.50
2018,06,20,10,21,21.60
2018,06,20,10,22,21.60
2018,06,20,10,23,21.60
2018,06,20,10,24,21.60
2018,06,20,10,25,21.60
2018,06,20,10,26,21.60
2018,06,20,10,27,21.60
2018,06,20,10,28,21.70
2018,06,20,10,29,21.80
2018,06,20,10,30,21.90
2018,06,20,10,31,21.90
2018,06,20,10,32,22.00
2018,06,20,10,33,22.00
2018,06,20,10,34,22.00
2018,06,20,10,35,22.00
2018,06,20,10,36,22.10
2018,06,20,10,37,22.10
2018,06,20,10,38,22.20
2018,06,20,10,39,22.30
2018,06,20,10,40,22.30
2018,06,20,10,41,22.30
2018,06,20,10,42,22.20
2018,06,20,10,43,22.20
2018,06,20,10,44,22.20
2018,06,20,10,45,22.20
2018,06,20,10,46,22.10
2018,06,20,10,47,22.10
2018,06,20,10,48,22.10
2018,06,20,10,49,22.10
2018,06,20,10,50,22.10
2018,06,20,10,51,22.10
2018,06,20,10,52,22.10
2018,06,20,10,53,22.10
2018,06,20,10,54,22.10
2018,06,20,10,55,22.20
2018,06,20,10,56,22.10
2018,06,20,10,57,22.10
2018,06,20,10,58,22.10
2018,06,20,10,59,22.10
2018,06,20,11,00,22.10
2018,06,20,11,01,22.20
2018,06,20,11,02,22.30
2018,06,20,11,03,22.30
2018,06,20,11,04,22.30
2018,06,20,11,05,22.30
2018,06,20,11,06,22.30
2018,06,20,11,07,22.40
2018,06,20,11,08,22.30
2018,06,20,11,09,22.30
2018,06,20,11,10,22.30
2018,06,20,11,11,22.30
2018,06,20,11,12,22.40
2018,06,20,11,13,22.40
2018,06,20,11,14,22.50
2018,06,20,11,15,22.50
2018,06,20,11,16,22.60
2018,06,20,11,17,22.50
2018,06,20,11,18,22.50
2018,06,20,11,19,22.50
2018,06,20,11,20,22.50
2018,06,20,11,21,22.60
2018,06,20,11,22,22.70
2018,06,20,11,23,22.80
2018,06,20,11,24,22.80
2018,06,20,11,25,22.90
2018,06,20,11,26,23.00
2018,06,20,11,27,23.00
2018,06,20,11,28,23.10
2018,06,20,11,29,23.10
2018,06,20,11,30,23.30
2018,06,20,11,31,23.40
2018,06,20,11,32,23.40
2018,06,20,11,33,23.50
2018,06,20,11,34,23.60
2018,06,20,11,35,23.60
2018,06,20,11,36,23.70
2018,06,20,11,37,23.70
2018,06,20,11,38,23.70
2018,06,20,11,39,23.70
2018,06,20,11,40,23.70
2018,06,20,11,41,23.70
2018,06,20,11,42,23.60
2018,06,20,11,43,23.60
2018,06,20,11,44,23.60
2018,06,20,11,45,23.60
2018,06,20,11,46,23.60
2018,06,20,11,47,23.60
2018,06,20,11,48,23.60
2018,06,20,11,49,23.60
2018,06,20,11,50,23.50
2018,06,20,11,51,23.40
2018,06,20,11,52,23.40
2018,06,20,11,53,23.30
2018,06,20,11,54,23.30
2018,06,20,11,55,23.30
2018,06,20,11,56,23.30
2018,06,20,11,57,23.30
2018,06,20,11,58,23.30
2018,06,20,11,59,23.40
2018,06,20,12,00,23.50
2018,06,20,12,01,23.50
2018,06,20,12,02,23.60
2018,06,20,12,03,23.60
2018,06,20,12,04,23.70
2018,06,20,12,05,23.80
2018,06,20,12,06,24.00
2018,06,20,12,07,24.00
2018,06,20,12,08,24.10
2018,06,20,12,09,24.20
2018,06,20,12,10,24.30
2018,06,20,12,11,24.40
2018,06,20,12,12,24.50
2018,06,20,12,13,24.60
2018,06,20,12,14,24.70
2018,06,20,12,15,24.70
2018,06,20,12,16,24.70
2018,06,20,12,17,24.70
2018,06,20,12,18,24.70
2018,06,20,12,19,24.60
2018,06,20,12,20,24.50
2018,06,20,12,21,24.40
2018,06,20,12,22,24.40
2018,06,20,12,23,24.40
2018,06,20,12,24,24.30
2018,06,20,12,25,24.30
2018,06,20,12,26,24.30
2018,06,20,12,27,24.30
2018,06,20,12,28,24.30
2018,06,20,12,29,24.30
2018,06,20,12,30,24.40
2018,06,20,12,31,24.40
2018,06,20,12,32,24.40
2018,06,20,12,33,24.50
2018,06,20,12,34,24.50
2018,06,20,12,35,24.50
2018,06,20,12,36,24.40
2018,06,20,12,37,24.40
2018,06,20,12,38,24.40
2018,06,20,12,39,24.40
2018,06,20,12,40,24.40
2018,06,20,12,41,24.40
2018,06,20,12,42,24.40
2018,06,20,12,43,24.30
2018,06,20,12,44,24.30
2018,06,20,12,45,24.30
2018,06,20,12,46,24.40
2018,06,20,12,47,24.30
2018,06,20,12,48,24.30
2018,06,20,12,49,24.30
2018,06,20,12,50,24.30
2018,06,20,12,51,24.20
2018,06,20,12,52,24.20
2018,06,20,12,53,24.20
2018,06,20,12,54,24.20
2018,06,20,12,55,24.30
2018,06,20,12,56,24.40
2018,06,20,12,57,24.40
2018,06,20,12,58,24.50
2018,06,20,12,59,24.60
2018,06,20,13,00,24.70
2018,06,20,13,01,24.80
2018,06,20,13,02,24.80
2018,06,20,13,03,24.80
2018,06,20,13,04,24.90
2018,06,20,13,05,25.00
2018,06,20,13,06,25.00
2018,06,20,13,07,25.00
2018,06,20,13,08,25.00
2018,06,20,13,09,25.00
2018,06,20,13,10,25.00
2018,06,20,13,11,25.00
2018,06,20,13,12,25.10
2018,06,20,13,13,25.20
2018,06,20,13,14,25.30
2018,06,20,13,15,25.30
2018,06,20,13,16,25.30
2018,06,20,13,17,25.40
2018,06,20,13,18,25.40
2018,06,20,13,19,25.30
2018,06,20,13,20,25.30
2018,06,20,13,21,25.40
2018,06,20,13,22,25.40
2018,06,20,13,23,25.30
2018,06,20,13,24,25.30
2018,06,20,13,25,25.30
2018,06,20,13,26,25.30
2018,06,20,13,27,25.40
2018,06,20,13,28,25.40
2018,06,20,13,29,25.50
2018,06,20,13,30,25.50
2018,06,20,13,31,25.60
2018,06,20,13,32,25.70
2018,06,20,13,33,25.80
2018,06,20,13,34,25.80
2018,06,20,13,35,25.80
2018,06,20,13,36,25.80
2018,06,20,13,37,25.80
2018,06,20,13,38,25.80
2018,06,20,13,39,25.70
2018,06,20,13,40,25.70
2018,06,20,13,41,25.70
2018,06,20,13,42,25.80
2018,06,20,13,43,25.80
2018,06,20,13,44,25.90
2018,06,20,13,45,25.90
2018,06,20,13,46,25.80
2018,06,20,13,47,25.80
2018,06,20,13,48,25.80
2018,06,20,13,49,25.80
2018,06,20,13,50,25.80
2018,06,20,13,51,25.80
2018,06,20,13,52,25.80
2018,06,20,13,53,25.80
2018,06,20,13,54,25.80
2018,06,20,13,55,25.70
2018,06,20,13,56,25.70
2018,06,20,13,57,25.70
2018,06,20,13,58,25.70
2018,06,20,13,59,25.70
2018,06,20,14,00,25.70
2018,06,20,14,01,25.70
2018,06,20,14,02,25.80
2018,06,20,14,03,25.90
2018,06,20,14,04,25.90
2018,06,20,14,05,25.90
2018,06,20,14,06,25.90
2018,06,20,14,07,26.00
2018,06,20,14,08,26.00
2018,06,20,14,09,26.00
2018,06,20,14,10,26.00
2018,06,20,14,11,26.00
2018,06,20,14,12,26.00
2018,06,20,14,13,25.90
2018,06,20,14,14,25.80
2018,06,20,14,15,25.70
2018,06,20,14,16,25.70
2018,06,20,14,17,25.60
2018,06,20,14,18,25.60
2018,06,20,14,19,25.60
2018,06,20,14,20,25.60
2018,06,20,14,21,25.60
2018,06,20,14,22,25.60
2018,06,20,14,23,25.50
2018,06,20,14,24,25.50
2018,06,20,14,25,25.50
2018,06,20,14,26,25.50
2018,06,20,14,27,25.40
2018,06,20,14,28,25.40
2018,06,20,14,29,25.40
2018,06,20,14,30,25.40
2018,06,20,14,31,25.50
2018,06,20,14,32,25.50
2018,06,20,14,33,25.50
2018,06,20,14,34,25.50
2018,06,20,14,35,25.60
2018,06,20,14,36,25.60
2018,06,20,14,37,25.60
2018,06,20,14,38,25.60
2018,06,20,14,39,25.60
2018,06,20,14,40,25.60
2018,06,20,14,41,25.70
2018,06,20,14,42,25.70
2018,06,20,14,43,25.80
2018,06,20,14,44,25.80
2018,06,20,14,45,25.80
2018,06,20,14,46,25.90
2018,06,20,14,47,25.90
2018,06,20,14,48,26.00
2018,06,20,14,49,26.00
2018,06,20,14,50,26.10
2018,06,20,14,51,26.10
2018,06,20,14,52,26.10
2018,06,20,14,53,26.00
2018,06,20,14,54,26.00
2018,06,20,14,55,25.90
2018,06,20,14,56,25.90
2018,06,20,14,57,25.80
2018,06,20,14,58,25.80
2018,06,20,14,59,25.80
2018,06,20,15,00,25.80
2018,06,20,15,01,25.80
2018,06,20,15,02,25.80
2018,06,20,15,03,25.80
2018,06,20,15,04,25.90
2018,06,20,15,05,25.90
2018,06,20,15,06,26.00
2018,06,20,15,07,26.00
2018,06,20,15,08,26.00
2018,06,20,15,09,26.00
2018,06,20,15,10,25.90
2018,06,20,15,11,25.90
2018,06,20,15,12,25.90
2018,06,20,15,13,25.90
2018,06,20,15,14,25.90
2018,06,20,15,15,25.90
2018,06,20,15,16,25.90
2018,06,20,15,17,26.00
2018,06,20,15,18,26.10
2018,06,20,15,19,26.10
2018,06,20,15,20,26.20
2018,06,20,15,21,26.20
2018,06,20,15,22,26.20
2018,06,20,15,23,26.20
2018,06,20,15,24,26.30
2018,06,20,15,25,26.30
2018,06,20,15,26,26.30
2018,06,20,15,27,26.30
2018,06,20,15,28,26.30
2018,06,20,15,29,26.30
2018,06,20,15,30,26.30
2018,06,20,15,31,26.30
2018,06,20,15,32,26.30
2018,06,20,15,33,26.30
2018,06,20,15,34,26.20
2018,06,20,15,35,26.20
2018,06,20,15,36,26.20
2018,06,20,15,37,26.20
2018,06,20,15,38,26.20
2018,06,20,15,39,26.20
2018,06,20,15,40,26.20
2018,06,20,15,41,26.20
2018,06,20,15,42,26.20
2018,06,20,15,43,26.20
2018,06,20,15,44,26.20
2018,06,20,15,45,26.20
2018,06,20,15,46,26.10
2018,06,20,15,47,26.20
2018,06,20,15,48,26.10
2018,06,20,15,49,26.10
2018,06,20,15,50,26.10
2018,06,20,15,51,26.10
2018,06,20,15,52,26.00
2018,06,20,15,53,26.00
2018,06,20,15,54,25.90
2018,06,20,15,55,25.90
2018,06,20,15,56,25.90
2018,06,20,15,57,25.90
2018,06,20,15,58,26.00
2018,06,20,15,59,26.10
2018,06,20,16,00,26.10
2018,06,20,16,01,26.20
2018,06,20,16,02,26.40
2018,06,20,16,03,26.50
2018,06,20,16,04,26.60
2018,06,20,16,05,26.70
2018,06,20,16,06,26.80
2018,06,20,16,07,26.90
2018,06,20,16,08,26.90
2018,06,20,16,09,26.90
2018,06,20,16,10,26.90
2018,06,20,16,11,27.00
2018,06,20,16,12,27.10
2018,06,20,16,13,27.10
2018,06,20,16,14,27.20
2018,06,20,16,15,27.20
2018,06,20,16,16,27.20
2018,06,20,16,17,27.20
2018,06,20,16,18,27.20
2018,06,20,16,19,27.20
2018,06,20,16,20,27.20
2018,06,20,16,21,27.20
2018,06,20,16,22,27.30
2018,06,20,16,23,27.30
2018,06,20,16,24,27.40
2018,06,20,16,25,27.40
2018,06,20,16,26,27.40
2018,06,20,16,27,27.50
2018,06,20,16,28,27.60
2018,06,20,16,29,27.60
2018,06,20,16,30,27.50
2018,06,20,16,31,27.40
2018,06,20,16,32,27.40
2018,06,20,16,33,27.30
2018,06,20,16,34,27.30
2018,06,20,16,35,27.20
2018,06,20,16,36,27.20
2018,06,20,16,37,27.20
2018,06,20,16,38,27.20
2018,06,20,16,39,27.20
2018,06,20,16,40,27.20
2018,06,20,16,41,27.20
2018,06,20,16,42,27.20
2018,06,20,16,43,27.20
2018,06,20,16,44,27.20
2018,06,20,16,45,27.20
2018,06,20,16,46,27.20
2018,06,20,16,47,27.30
2018,06,20,16,48,27.30
2018,06,20,16,49,27.30
2018,06,20,16,50,27.30
2018,06,20,16,51,27.30
2018,06,20,16,52,27.30
2018,06,20,16,53,27.30
2018,06,20,16,54,27.30
2018,06,20,16,55,27.30
2018,06,20,16,56,27.30
2018,06,20,16,57,27.40
2018,06,20,16,58,27.40
2018,06,20,16,59,27.40
2018,06,20,17,00,27.30
2018,06,20,17,01,27.30
2018,06,20,17,02,27.30
2018,06,20,17,03,27.30
2018,06,20,17,04,27.30
2018,06,20,17,05,27.20
2018,06,20,17,06,27.20
2018,06,20,17,07,27.20
2018,06,20,17,08,27.20
2018,06,20,17,09,27.20
2018,06,20,17,10,27.20
2018,06,20,17,11,27.10
2018,06,20,17,12,27.10
2018,06,20,17,13,27.10
2018,06,20,17,14,27.10
2018,06,20,17,15,27.20
2018,06,20,17,16,27.30
2018,06,20,17,17,27.30
2018,06,20,17,18,27.40
2018,06,20,17,19,27.50